Керки

Туркменистан     37°49′57″N   65°12′34″E
В апреле 2022 года жителям России запретили посещать сайт meteo.paraplan.net по решению Генеральной прокуратуры. Аудитория сайта уменьшилась в 10 раз. Владельцы сайта не видят смысла в поддержке погодного сервера в таких условиях. Сайт будет закрыт в октябре.
темп.,
°C
ветер,
м/с
пор.,
м/с
влажн.,
%
обл.,
%
осадки,
мм/ч
давл.,
гПа
погр.,
м
6 октября, чт
чт623:00+15сз44150 0.0 101928
02:00+13сз44200 0.0 101836
05:00+12сз44230 0.0 101942
08:00+12зсз34270 0.0 1020125
11:00+19зюз22170 0.0 1020640
14:00+24зсз22120 0.0 10181282
17:00+24ссз12100 0.0 10171282
20:00+18вюв22150 0.0 101911
7 октября, пт
пт723:00+16ю23160 0.0 101912
02:00+14ююз11190 0.0 101811
05:00+12ююв22200 0.0 101911
08:00+17ююв22160 0.0 102026
11:00+23ю23100 0.0 1020879
14:00+26ююз2270 0.0 10181460
17:00+26зюз0160 0.0 10181384
20:00+19зсз22100 0.0 101911
8 октября, сб
сб823:00+17з33120 0.0 101911
02:00+16ссз33135 0.0 102011
05:00+14ссз331551 0.0 102011
08:00+17сз221439 0.0 102225
11:00+24сз2290 0.0 1022661
14:00+27ссз3380 0.0 10201570
17:00+27ссз4380 0.0 10191640
20:00+21ссз44120 0.0 102018
9 октября, вс
вс923:00+18с44130 0.0 102021
02:00+16с44140 0.0 102017
05:00+15с44170 0.0 102017
08:00+17с33180 0.0 102185
11:00+24ссз33110 0.0 1020664
14:00+27ссз4480 0.0 10181465
17:00+27ссз4470 0.0 10171374
20:00+21зсз44100 0.0 101817
10 октября, пн
пн1023:00+18сз44160 0.0 101822
02:00+16зсз33200 0.0 101811
05:00+15зюз33210 0.0 101811
08:00+16юз22210 0.0 101969
11:00+23ююз22140 0.0 1019638
14:00+27юз11100 0.0 10161417
17:00+27ссз11100 0.0 10141109
20:00+19вюв11160 0.0 101511